Location: McCall
(45.0000°N, 116.0000°W)
Time: 04:44:48
(UTC-07:00)

Saudisat 1A - Visible Passes

Search period start: 27 November 2014 00:00
Search period end: 07 December 2014 00:00
Orbit: 595 x 610 km, 64.6° (Epoch: 26 November)

Date Brightness Start Highest point End Pass type
(mag) Time Alt. Az. Time Alt. Az. Time Alt. Az.
27 Nov 9.9 05:54:36 15° N 05:57:16 24° NE 06:00:53 10° E visible
28 Nov 9.3 06:06:29 18° NNW 06:09:22 37° NE 06:13:30 10° ESE visible
29 Nov 10.8 04:41:38 13° NE 04:41:38 13° NE 04:43:13 10° ENE visible
29 Nov 8.4 06:18:26 21° NNW 06:21:22 63° NE 06:25:45 10° SE visible
30 Nov 10.3 04:53:38 19° NE 04:53:38 19° NE 04:56:27 10° E visible
30 Nov 8.0 06:30:27 22° NW 06:33:15 74° WSW 06:37:39 10° SSE visible
01 Dec 9.7 05:05:43 29° NE 05:05:43 29° NE 05:09:14 10° ESE visible
01 Dec 8.6 06:42:32 21° WNW 06:45:00 40° WSW 06:49:08 10° S visible
02 Dec 9.0 05:17:52 45° ENE 05:17:52 45° ENE 05:21:40 10° ESE visible
02 Dec 9.4 06:54:41 17° WNW 06:56:40 22° WSW 07:00:06 10° SSW visible
03 Dec 8.4 05:30:06 59° SE 05:30:06 59° SE 05:33:44 10° SE visible
03 Dec 10.0 07:06:55 11° W 07:08:13 12° WSW 07:10:01 10° SW visible
04 Dec 8.9 05:42:25 39° S 05:42:25 39° S 05:45:26 10° SSE visible
05 Dec 9.7 05:54:48 21° SSW 05:54:48 21° SSW 05:56:41 10° S visible
06 Dec 10.4 06:07:15 10° SSW 06:07:15 10° SSW 06:07:17 10° SSW visible
06 Dec 10.7 20:07:52 10° SSW 20:08:09 12° SSW 20:08:09 12° SSW visible
